Hourly Data Report for December 07, 2021

MANIWAKI AIRPORT
QUEBEC
Current Station Operator: ECCC - MSC

46°16'29.000" N
75°59'31.000" W
199.70 m
7034482
71721
WMJ

Download Data

Hourly Data (December 2021)
Hourly Data Report for December 7, 2021
TIME
LST
Temp Definition
°C
Dew Point Definition
°C
Rel Hum Definition
%
Precip. Amount Definition
mm

Wind Dir Definition
10's deg

Wind Spd Definition
km/h
Visibility Definition
km
Stn Press Definition
kPa
Hmdx Definition


Wind Chill Definition


Weather Definition


00:00 -5.0 -10.5 65 0.0 29 27   97.98   -13 LegendNANA
01:00 -6.1 -10.4 71 0.0 29 25   98.25   -14 LegendNANA
02:00 -7.5 -13.6 62 0.0 28 24   98.44   -15 LegendNANA
03:00 -8.0 -12.6 69 0.0 28 14   98.63   -14 LegendNANA
04:00 -8.4 -12.9 70 0.0 25 13   98.79   -14 LegendNANA
05:00 -8.6 -13.0 71 0.0 26 9   98.89   -13 LegendNANA
06:00 -9.8 -13.4 75 0.0 31 11   99.01   -15 LegendNANA
07:00 -10.8 -14.3 75 0.0 30 13   99.11   -17 LegendNANA
08:00 -11.4 -15.0 75 0.0 30 11   99.24   -17 LegendNANA
09:00 -11.0 -15.1 72 0.0 28 8   99.33   -16 LegendNANA
10:00 -10.6 -14.6 72 0.0 26 10   99.45   -16 LegendNANA
11:00 -10.5 -15.4 67 0.0 31 10   99.48   -16 LegendNANA
12:00 -10.2 -15.6 65 0.0 29 11   99.46   -16 LegendNANA
13:00 -10.2 -15.8 64 0.0 28 12   99.45   -16 LegendNANA
14:00 -10.1 -16.6 59 0.0 27 11   99.51   -16 LegendNANA
15:00 -10.2 -16.7 59 0.0 28 9   99.53   -15 LegendNANA
16:00 -10.6 -16.7 61 0.0 28 9   99.59   -16 LegendNANA
17:00 -12.0 -17.2 65 0.0 26 4   99.69   -15 LegendNANA
18:00 -14.3 -17.9 74 0.0 26 2   99.76   -16 LegendNANA
19:00 -16.2 -18.4 83 0.0 34 3   99.78   -18 LegendNANA
20:00 -16.5 -18.1 88 0.0 25 2   99.78   -18 LegendNANA
21:00 -17.8 -19.6 86 0.0   0   99.76     LegendNANA
22:00 -18.8 -20.7 85 0.0   0   99.76     LegendNANA
23:00 -19.1 -21.0 85 0.0 2 1   99.77   -20 LegendNANA

Notes on Data Quality.

Legend

  • E = Estimated
  • M = Missing
  • NA = Not Available*
  • [empty] = Indicates an unobserved value
Date modified: